Onalaska, WI

12:09 PM CST on February 11, 2016 (GMT -0600)
La Crosse Municipal

Weather History for KLSE - August, 2013

Change the Weather History Date:

Saturday, August 3, 2013

  Actual Average Record
Temperature  
Mean Temperature 67 °F 73 °F  
Max Temperature 80 °F 83 °F 101 °F (1988)
Min Temperature 54 °F 63 °F 44 °F (1894)
Degree Days  
Heating Degree Days 0 0  
Month to date heating degree days 0 0  
Since 1 June heating degree days 56  
Since 1 July heating degree days 12 5  
Cooling Degree Days 2 8  
Month to date cooling degree days 12 24  
Year to date cooling degree days 537 511  
Since 1 June cooling degree days 477  
Growing Degree Days 18 (Base 50)    
Moisture  
Dew Point 53 °F    
Average Humidity 63    
Maximum Humidity 93    
Minimum Humidity 33    
Precipitation  
Precipitation 0.00 in 0.14 in 2.95 in (1924)
Month to date precipitation 0.02 0.42  
Year to date precipitation 26.13 20.09  
Snow  
Snow 0.00 in 0.00 in 0.00 in (2002)
Month to date snowfall 0.0 0.0  
Since 1 June snowfall T  
Since 1 July snowfall T 0.0  
Snow Depth 0.00 in    
Sea Level Pressure  
Sea Level Pressure 30.09 in    
Wind  
Wind Speed 5 mph (NW)    
Max Wind Speed 16 mph    
Max Gust Speed 20 mph    
Visibility 10 miles    
Events      
T = Trace of Precipitation, MM = Missing Value Source: NWS Daily Summary

Daily Weather History Graph

Daily Weather History Graph

Search for Another Location

Airport or City:

Trip Planner

Search our weather history database for the weather conditions in past years. The results will help you decide how hot, cold, wet, or windy it might be!

Date:

Astronomy

Aug. 03, 2013 Rise Set
Actual Time 5:55 AM CDT 8:25 PM CDT
Civil Twilight 5:23 AM CDT 8:58 PM CDT
Nautical Twilight 4:42 AM CDT 9:38 PM CDT
Astronomical Twilight 3:56 AM CDT 10:24 PM CDT
Moon 3:04 AM CDT (8/3) 6:09 PM CDT (8/3)
Length of Visible Light 15h 34m
Length of Day
14h 29m
Waning Crescent, 9% of the Moon is Illuminated
Aug 3
Waning Crescent
Aug 6
New
Aug 14
First Quarter
Aug 20
Full
Aug 28
Last Quarter

Hourly Weather History & Observations

Time (CDT) Temp. Dew Point Humidity Pressure Visibility Wind Dir Wind Speed Gust Speed Precip Events Conditions
12:53 AM 60.1 °F 55.0 °F 83% 30.01 in 10.0 mi Calm Calm - N/A   Clear
1:53 AM 59.0 °F 55.0 °F 87% 30.01 in 10.0 mi Calm Calm - N/A   Partly Cloudy
2:53 AM 60.1 °F 55.9 °F 86% 30.01 in 10.0 mi Calm Calm - N/A   Clear
3:53 AM 57.9 °F 55.0 °F 90% 30.03 in 10.0 mi Calm Calm - N/A   Partly Cloudy
4:53 AM 57.9 °F 54.0 °F 87% 30.04 in 10.0 mi Calm Calm - N/A   Partly Cloudy
5:53 AM 57.0 °F 54.0 °F 89% 30.05 in 10.0 mi Calm Calm - N/A   Scattered Clouds
6:53 AM 59.0 °F 55.9 °F 90% 30.06 in 10.0 mi Calm Calm - N/A   Partly Cloudy
7:53 AM 62.1 °F 55.9 °F 80% 30.08 in 10.0 mi North 3.5 mph - N/A   Clear
8:53 AM 66.0 °F 55.9 °F 70% 30.08 in 10.0 mi NW 3.5 mph - N/A   Clear
9:53 AM 69.1 °F 55.9 °F 63% 30.10 in 10.0 mi NNW 5.8 mph - N/A   Mostly Cloudy
10:53 AM 73.0 °F 57.0 °F 57% 30.11 in 10.0 mi NW 5.8 mph - N/A   Clear
11:53 AM 73.9 °F 52.0 °F 46% 30.12 in 10.0 mi NW 5.8 mph - N/A   Clear
12:53 PM 75.9 °F 52.0 °F 43% 30.12 in 10.0 mi NW 9.2 mph - N/A   Scattered Clouds
1:53 PM 77.0 °F 51.1 °F 40% 30.12 in 10.0 mi WNW 9.2 mph - N/A   Scattered Clouds
2:53 PM 79.0 °F 51.1 °F 38% 30.10 in 10.0 mi WNW 12.7 mph - N/A   Clear
3:53 PM 78.1 °F 50.0 °F 37% 30.10 in 10.0 mi WNW 13.8 mph 18.4 mph N/A   Scattered Clouds
4:53 PM 77.0 °F 48.9 °F 37% 30.09 in 10.0 mi NW 12.7 mph - N/A   Partly Cloudy
5:53 PM 77.0 °F 48.9 °F 37% 30.10 in 10.0 mi NW 11.5 mph - N/A   Partly Cloudy
6:53 PM 77.0 °F 46.9 °F 34% 30.09 in 10.0 mi NNW 9.2 mph - N/A   Clear
7:53 PM 73.0 °F 48.0 °F 41% 30.10 in 10.0 mi NNW 5.8 mph - N/A   Clear
8:53 PM 68.0 °F 51.1 °F 55% 30.11 in 10.0 mi North 3.5 mph - N/A   Clear
9:53 PM 63.0 °F 53.1 °F 70% 30.13 in 10.0 mi Calm Calm - N/A   Clear
10:53 PM 61.0 °F 52.0 °F 72% 30.15 in 10.0 mi Calm Calm - N/A   Clear
11:53 PM 57.9 °F 52.0 °F 81% 30.16 in 10.0 mi Calm Calm - N/A   Clear